Location: Frydek-Mistek
(49.6830°N, 18.3330°E)
Time: 10:11:27
(UTC+02:00)

ISS - Pass Details

Date: 23 May 2021
Orbit: 417 x 422 km, 51.6° (Epoch: 13 June)

Event Time Altitude Azimuth Distance (km) Brightness Sun altitude
Rises 22:10:41 0° 282° (WNW) 2,366 0.9 -11.9°
Reaches altitude 10° 22:12:47 10° 285° (WNW) 1,502 -0.2 -12.1°
Maximum altitude 22:16:08 66° 8° (N) 463 -3.4 -12.4°
Drops below altitude 10° 22:19:30 10° 92° (E) 1,503 -1.3 -12.7°
Enters shadow 22:19:30 10° 92° (E) 1,503 -1.3 -12.7°
